TimePDT,TemperatureF,Dew PointF,Humidity,Sea Level PressureIn,VisibilityMPH,Wind Direction,Wind SpeedMPH,Gust SpeedMPH,PrecipitationIn,Events,Conditions,WindDirDegrees,DateUTC
12:56 AM,48.9,1.9,15,29.81,10.0,NNE,6.9,-,N/A,,Clear,30,2013-05-25 07:56:00
1:56 AM,48.9,3.0,15,29.79,10.0,Calm,Calm,-,N/A,,Clear,0,2013-05-25 08:56:00
2:56 AM,43.0,1.0,17,29.81,10.0,NNW,3.5,-,N/A,,Clear,330,2013-05-25 09:56:00
3:56 AM,41.0,-0.0,18,29.81,10.0,NNW,4.6,-,N/A,,Clear,340,2013-05-25 10:56:00
4:56 AM,39.9,-0.9,18,29.82,10.0,North,8.1,-,N/A,,Clear,360,2013-05-25 11:56:00
5:56 AM,39.9,3.0,21,29.83,10.0,NNE,8.1,-,N/A,,Clear,20,2013-05-25 12:56:00
6:56 AM,48.9,3.9,16,29.83,10.0,North,4.6,-,N/A,,Clear,10,2013-05-25 13:56:00
7:56 AM,57.0,7.0,14,29.82,10.0,Calm,Calm,-,N/A,,Clear,0,2013-05-25 14:56:00
8:56 AM,60.1,9.0,13,29.83,10.0,Calm,Calm,-,N/A,,Clear,0,2013-05-25 15:56:00
9:56 AM,64.0,10.0,12,29.83,10.0,Calm,Calm,-,N/A,,Clear,0,2013-05-25 16:56:00
10:56 AM,66.9,9.0,10,29.82,10.0,Variable,3.5,-,N/A,,Clear,0,2013-05-25 17:56:00
11:56 AM,70.0,10.0,10,29.83,10.0,South,10.4,-,N/A,,Clear,190,2013-05-25 18:56:00
12:56 PM,71.1,9.0,9,29.82,10.0,SSW,10.4,-,N/A,,Clear,210,2013-05-25 19:56:00
1:56 PM,75.0,7.0,7,29.80,10.0,SW,11.5,17.3,N/A,,Clear,220,2013-05-25 20:56:00
2:56 PM,75.9,10.0,8,29.79,10.0,South,13.8,23.0,N/A,,Clear,190,2013-05-25 21:56:00
3:56 PM,78.1,9.0,7,29.77,10.0,SW,16.1,24.2,N/A,,Clear,220,2013-05-25 22:56:00
4:56 PM,77.0,12.0,8,29.76,10.0,SW,15.0,23.0,N/A,,Clear,220,2013-05-25 23:56:00
5:56 PM,75.9,12.9,9,29.76,10.0,SW,11.5,-,N/A,,Clear,220,2013-05-26 00:56:00
6:56 PM,73.9,12.0,9,29.74,10.0,South,15.0,-,N/A,,Clear,190,2013-05-26 01:56:00
7:56 PM,69.1,15.1,13,29.74,10.0,South,19.6,26.5,N/A,,Clear,190,2013-05-26 02:56:00
8:56 PM,66.0,16.0,15,29.75,10.0,South,13.8,23.0,N/A,,Clear,190,2013-05-26 03:56:00
9:56 PM,64.0,17.1,16,29.77,10.0,SSW,13.8,-,N/A,,Clear,210,2013-05-26 04:56:00
10:56 PM,60.1,17.1,19,29.78,10.0,WSW,6.9,-,N/A,,Clear,240,2013-05-26 05:56:00
11:56 PM,57.0,14.0,18,29.79,10.0,WNW,4.6,-,N/A,,Clear,290,2013-05-26 06:56:00